Lac la Martre, Northwest Territories

12:32 AM MDT on October 20, 2017 (GMT -0600)
Lac la Martre

Weather History for CWMT - September, 2012

Change the Weather History Date:

Friday, September 7, 2012

  Actual Average Record
Temperature  
Mean Temperature 58 °F -  
Max Temperature 63 °F - - ()
Min Temperature 51 °F - - ()
Degree Days  
Heating Degree Days 8    
Growing Degree Days 8 (Base 50)    
Moisture  
Dew Point 44 °F    
Average Humidity 61    
Maximum Humidity 82    
Minimum Humidity 20    
Precipitation  
Precipitation 0.00 in - - ()
Sea Level Pressure  
Sea Level Pressure 29.97 in    
Wind  
Wind Speed 8 mph ()    
Max Wind Speed 12 mph    
Max Gust Speed 20 mph    
T = Trace of Precipitation, MM = Missing Value Source: Averaged Metar Reports

Daily Weather History Graph

Daily Weather History Graph

Search for Another Location

Airport or City:

Trip Planner

Search our weather history database for the weather conditions in past years. The results will help you decide how hot, cold, wet, or windy it might be!

Date:

Astronomy

Sep. 07, 2012 Rise Set
Actual Time 6:53 AM MDT 8:38 PM MDT
Civil Twilight 6:04 AM MDT 9:27 PM MDT
Nautical Twilight 5:00 AM MDT 10:30 PM MDT
Astronomical Twilight 3:35 AM MDT 11:52 PM MDT
Moon 10:04 PM MDT (9/7) 4:23 PM MDT (9/7)
Length of Visible Light 15h 23m
Length of Day
13h 45m
Waning Gibbous, 58% of the Moon is Illuminated
Sep 7
Waning Gibbous
Sep 8
Last Quarter
Sep 15
New
Sep 22
First Quarter
Sep 29
Full

Hourly Weather History & Observations

Time (MDT) Temp. Dew Point Humidity Pressure Visibility Wind Dir Wind Speed Gust Speed Precip Events Conditions
12:00 AM 56 °F 46 °F 59% 29.82 in - NNW 11.5 mph - -  
12:00 AM 56.5 °F 45.7 °F 67% 29.82 in - NNW 11.5 mph 19.6 mph N/A   Unknown
1:00 AM 55.0 °F 43.2 °F 64% 29.84 in - NW 8.1 mph - N/A   Unknown
2:00 AM 54.9 °F 45.1 °F 70% 29.87 in - WNW 10.4 mph - N/A   Unknown
3:00 AM 53.4 °F 46.9 °F 79% 29.89 in - WNW 10.4 mph - N/A   Unknown
4:00 AM 53.4 °F 45.9 °F 76% 29.90 in - NW 8.1 mph - N/A   Unknown
5:00 AM 53.8 °F 46.8 °F 77% 29.92 in - WNW 9.2 mph - N/A   Unknown
6:00 AM 52 °F 47 °F 78% 29.94 in - WNW 8.1 mph - -  
6:00 AM 52.3 °F 47.1 °F 82% 29.94 in - WNW 8.1 mph - N/A   Unknown
7:00 AM 53.2 °F 46.4 °F 78% 29.97 in - WNW 10.4 mph - N/A   Unknown
8:00 AM 53.2 °F 48.0 °F 82% 29.99 in - West 9.2 mph - N/A   Unknown
9:00 AM 55.6 °F 45.3 °F 68% 30.00 in - NW 9.2 mph - N/A   Unknown
10:00 AM 57.2 °F 46.0 °F 66% 30.01 in - WNW 10.4 mph - N/A   Unknown
11:00 AM 57.6 °F 46.4 °F 66% 30.02 in - NW 8.1 mph - N/A   Unknown
12:00 PM 60 °F 46 °F 50% 30.03 in - WNW 6.9 mph - -  
12:00 PM 59.9 °F 46.0 °F 60% 30.03 in - WNW 6.9 mph - N/A   Unknown
1:00 PM 60.6 °F 44.6 °F 56% 30.04 in - West 8.1 mph - N/A   Unknown
2:00 PM 62.1 °F 39.7 °F 44% 30.04 in - WNW 6.9 mph - N/A   Unknown
3:00 PM 60.1 °F 40.1 °F 48% 30.05 in - NW 5.8 mph - N/A   Unknown
4:00 PM 62.8 °F 41.5 °F 46% 30.04 in - WNW 6.9 mph - N/A   Unknown
5:00 PM 63.1 °F 40.5 °F 43% 30.02 in - WNW 5.8 mph - N/A   Unknown
6:00 PM 63 °F 32 °F 20% 30.01 in - West 10.4 mph - -  
6:00 PM 63.0 °F 31.8 °F 31% 30.01 in - West 10.4 mph - N/A   Unknown
7:00 PM 59.5 °F 41.4 °F 51% 30.00 in - North 2.3 mph - N/A   Unknown
8:00 PM 57.2 °F 44.4 °F 62% 29.99 in - SSE 3.5 mph - N/A   Unknown
11:00 PM 51.8 °F 43.0 °F 72% 29.93 in - SE 4.6 mph - N/A   Unknown